Location: Newark
(7.0858°N, 171.3717°E)
Time: 05:39:47
(UTC+00:00)

Courier 1B Rocket - Pass Details

Date: 06 December 2020
Orbit: 920 x 1202 km, 28.2° (Epoch: 20 January)

Event Time Altitude Azimuth Distance (km) Brightness Sun altitude
Rises 20:26:15 0° 309° (NW) 4,090 7.7 24.3°
Reaches altitude 10° 20:29:20 10° 317° (NW) 3,123 7.2 25.0°
Maximum altitude 20:36:33 40° 24° (NNE) 1,658 6.5 26.5°
Drops below altitude 10° 20:43:32 10° 92° (E) 3,018 8.7 28.0°
Sets 20:46:27 0° 99° (E) 3,939 9.2 28.7°
